Regional Weather Roundup
Issued by NWS

Home | Current Version | Previous Version | Text Only | Print | Product List | Glossary Off
Versions: 1 2 3 4 5 6 7 8 9 10 11 12 13 14 15 16 17 18 19 20 21 22 23 24 25 26 27 28 29 30 31 32 33 34 35 36 37 38 39 40 41 42 43 44 45 46 47 48 49 50

000
ASUS43 KFSD 231102
RWRSD

WEATHER ROUNDUP FOR SOUTH DAKOTA
NATIONAL WEATHER SERVICE SIOUX FALLS SD
600 AM CDT THU MAR 23 2017

NOTE: "FAIR" INDICATES FEW OR NO CLOUDS BELOW 12,000 FEET WITH NO
SIGNIFICANT WEATHER AND/OR OBSTRUCTIONS TO VISIBILITY.


SDZ001>005-009-010-012>017-231200-
NORTHWEST AND NORTH CENTRAL SOUTH DAKOTA

CITY           SKY/WX    TMP DP  RH WIND       PRES   REMARKS
BUFFALO          N/A     42  37  82 N13       29.63S
FAITH            N/A     40  39  97 E5        29.68F
MOBRIDGE       CLOUDY    41  30  65 SE8       29.76R
$$

SDZ012>016-024>037-041>051-057-063-072>074-231200-
SOUTHWEST AND SOUTH CENTRAL SOUTH DAKOTA

CITY           SKY/WX    TMP DP  RH WIND       PRES   REMARKS
RAPID CTY ARPT PTCLDY    46  39  76 NW10      29.66F
PIERRE         CLOUDY    44  30  57 SE12      29.76F
CUSTER         CLOUDY    42  34  73 N5        29.71S
ELLSWORTH AFB  CLOUDY    45  43  93 NW10      29.66F
PHILIP         MOCLDY    41  35  79 E8        29.70F
PINE RIDGE     CLOUDY    44  36  73 S13       29.70S
SPEARFISH      FAIR      45  41  87 CALM      29.70S
WINNER         FAIR      47  35  63 S28G37    29.74F
$$

SDZ004>011-016>023-039-040-231200-
NORTHEAST SOUTH DAKOTA

CITY           SKY/WX    TMP DP  RH WIND       PRES   REMARKS
ABERDEEN       CLOUDY    37  27  67 S16       29.84F
WATERTOWN      PTCLDY    36  26  67 S17       29.90F
BROOKINGS      CLEAR     36  26  67 S17       29.94F
SISSETON         N/A     35  29  78 S13       29.91F WCI  26
$$

SDZ017-020-022-023-036>040-048>070-231200-
SOUTHEAST SOUTH DAKOTA

CITY           SKY/WX    TMP DP  RH WIND       PRES   REMARKS
SIOUX FALLS    CLOUDY    40  26  57 SE16      29.97F
HURON          PTCLDY    38  28  67 SE20G25   29.86F
CHAMBERLAIN    CLOUDY    42  32  68 E13       29.80F
MITCHELL       MOCLDY    41  29  62 SE20      29.88F
YANKTON        PTCLDY    41  27  56 SE14      29.94F
$$

ABBREVIATIONS USED IN REMARKS
   TC - TEMPERATURE IN CELSIUS
  WCI - WIND CHILL INDEX
   HX - HEAT INDEX
  VSB - VISIBILITY




USA.gov is the U.S. government's official web portal to all federal, state and local government web resources and services.